Simultaneous Nadir Overpasses (SNOs) Predictions

Prediction of SNOs between FY3D and NOAA-19 Satellite Orbit:

Table of predicted SNOs for the next 14.0 days since TLE Epoch: 1/31/2020
Index Date (FY3D) Time (FY3D) Lat,Lon (FY3D) SZA (FY3D ) Date (NOAA-19) Time (NOAA-19) Lat,Lon (NOAA-19) SZA (NOAA-19 ) Distance(km) Time Diff (sec)
1 02/12/2020 13:13:25 -79.65, 127.16 84.52 02/12/2020 13:12:18 -79.65, 127.29 84.50 2.68 67
2 02/12/2020 14:04:10 79.66, -65.63 95.50 02/12/2020 14:03:16 79.63, -65.62 95.50 3.13 54
3 02/12/2020 14:54:54 -79.64, 101.82 84.55 02/12/2020 14:54:19 -79.64, 101.70 84.52 2.38 35
4 02/12/2020 15:45:39 79.66, -90.97 95.47 02/12/2020 15:45:16 79.65, -90.93 95.47 1.12 23
5 02/12/2020 16:36:23 -79.64, 76.48 84.58 02/12/2020 16:36:19 -79.66, 76.40 84.55 2.42 4
6 02/12/2020 17:27:08 79.65,-116.31 95.44 02/12/2020 17:27:16 79.67,-116.23 95.44 2.31 8
7 02/12/2020 18:17:53 -79.67, 50.86 84.55 02/12/2020 18:18:20 -79.65, 50.81 84.57 2.40 27
8 02/12/2020 19:08:38 79.68,-141.94 95.47 02/12/2020 19:09:17 79.66,-141.83 95.42 3.29 39
9 02/12/2020 19:59:22 -79.67, 25.51 84.58 02/12/2020 20:00:20 -79.67, 25.51 84.60 0.24 58




NCC Satellite Simultaneous Nadir Overpasses (SNOs) Prediction Service
